DELTA 1 DEB, 13525

Orbit data source: Space-Track

DELTA 1 DEB, 13525 is space debris in SSO originally from a launch on Tue, 06 Nov 1973 UTC launched from the Air Force Western Test Range (AFWTR). Debris objects in space refer to the collection of defunct objects orbiting the Earth. Examples of debris include non-operational satellites, rocket bodies, and fragments generated from explosions, collisions, or faulty payload assembly.

Loading next visibility...
Identifier
13525, 1973-086GN
Orbit
SSO
Country
Flag of USUS
Related business
Manufacturer
Unknown
Mission
Spacecraft
Bus & Motor
Unknown
Mass
Unknown
Launch date (UTC)
1973-11-06 (52 years ago)
Launch vehicle
Unknown
Launch site
Air Force Western Test Range (AFWTR)
Object type
Payload
Rocket body
Debris
Shape & HBR
Unknown shape, 0.1 m
Radar Cross Section
Small (<0.1 m²)

Expand to show TLE details & history
Last TLE update: 2 days ago

TLE from 2 days ago
0 DELTA 1 DEB
1 13525U 73086GN  25296.41777093  .00000044  00000-0  56945-3 0  9992
2 13525 101.9165 269.6258 0077057  78.8386  72.6288 12.51178134 67239
Epoch: 2025-10-23T10:01Z
TLE epoch observation values (Epoch: 2025-10-23T10:01:35.408Z)
Latitude
27.07931°
Longitude
-86.68566°
Altitude
1,444.969 km
Speed
7.15 km/s
True Right ascension
06h 23m 09s
True Declination
26° 57' 09"
Sunlit
Object was in daylight at epoch
Visualization orbit readout
Latitude
Unknown
Longitude
Unknown
Altitude
Unknown
Speed
Unknown
Apparent Right ascension
Unknown
Apparent Declination
Unknown
Sunlit
N/A
Visualization observer readout
Local Sidereal Time
20:10:21
Azimuth
Unknown
Elevation
Unknown
Doppler factor
Unknown
Orbital elements
Apogee altitude
1,517.502 km
Perigee altitude
1,396.75 km
Semi-major axis
7,835.263 km
Eccentricity
0.00771
Inclination
101.9165°
RAAN
269.6258°
Arg. of periapsis
78.8386°
True anomaly
73.47393°
Mean anomaly
72.6288°
Eccentric anomaly
73.05113°
Mean motion
3.12941 °/min
Orbital period
115.04 mins
BSTAR
0.00056945
Loading maneuver chart data...
Computing Atmospheric mass density...
Loading historical data...
Loading historical data...
Loading historical data...
Loading historical data...
Loading historical data...
Loading historical data...
Loading historical data...

Documentation

Showing up to 5 results
|